Regional Weather Roundup
Issued by NWS Austin/San Antonio, TX

Home | Current Version | Previous Version | Text Only | Print | Product List | Glossary On
Versions: 1 2 3 4 5 6 7 8 9 10 11 12 13 14 15 16 17 18 19 20 21 22 23 24 25 26 27 28 29 30 31 32 33 34 35 36 37 38 39 40 41 42 43 44 45 46 47 48 49 50
000
ASUS44 KEWX 270711
RWREWX
SOUTH TEXAS REGIONAL WEATHER ROUNDUP
NATIONAL WEATHER SERVICE AUSTIN/SAN ANTONIO TX
100 AM CST MON JAN 27 2020

NOTE: "FAIR" INDICATED FEW OR NO CLOUDS BELOW 12,000 FEET WITH NO
SIGNIFICANT WEATHER AND/OR OBSTRUCTIONS TO VISIBILITY.

* - THESE STATIONS ARE NOT NWS OR FAA STATIONS...AND ARE NOT SUBJECT
    TO NWS AND FAA QUALITY CONTROL.

TXZ171-172-183>190-270800-
TEXAS HILL COUNTRY AND EDWARDS PLATEAU

CITY           SKY/WX    TMP DP  RH WIND       PRES   REMARKS
JUNCTION       CLEAR     42  38  85 NW5       30.03F WCI  39
*LLANO         CLEAR     48  45  87 CALM      30.06F
BURNET         CLEAR     50  46  86 CALM      30.05F
*HORSESHOE BAY NOT AVBL
*LAGO VISTA    CLEAR     51  49  93 E6        30.03F
*KERRVILLE     CLEAR     44  40  87 CALM      30.03S
*FREDERICKSBRG CLEAR     42  40  89 CALM      30.03F
*ROCKSPRINGS   CLEAR     52  39  62 SE7       30.06F
*BOERNE        CLEAR     43  43 100 CALM      30.04F
*CASTROVILLE   CLEAR     52  47  85 CALM      30.03S
HONDO          CLEAR     50  44  80 NE5       30.01S WCI  48
*UVALDE        CLEAR     53  45  75 NE6       30.02S
DEL RIO        CLEAR     51  38  60 SE3       29.98F
*LAUGHLIN AFB  NOT AVBL
*SPOFFORD      NOT AVBL
*EAGLE PASS    CLEAR     55  36  47 NW5       29.98F
CARRIZO SPRGS  CLEAR     50  36  57 CALM      29.97F
*FAITH RANCH   CLEAR     55  41  58 SE6       29.98S
$$

TXZ173-191>194-202-209-217>225-228-270800-
CENTRAL AND SOUTH CENTRAL TEXAS

CITY           SKY/WX    TMP DP  RH WIND       PRES   REMARKS
GEORGETOWN     CLEAR     45  42  89 SW3       30.05S
*TAYLOR        CLEAR     45  44  98 CALM      30.03S FOG
AUSTIN/BERGSTM CLEAR     45  43  93 CALM      30.02F
AUSTIN/MABRY   CLEAR     53  48  83 CALM      30.04F
*PFLUGERVILLE  CLEAR     52  50  93 CALM      30.04S
SAN MARCOS     CLEAR     48  46  93 N6        30.03F WCI  45
NEW BRAUNFELS  CLEAR     54  48  80 NE7       30.00F
*RANDOLPH AFB  CLEAR     55  48  76 NE3       30.01F
*SEGUIN        CLEAR     50  46  86 CALM      30.06S
SAN ANTONIO    CLEAR     56  47  71 CALM      30.02F
STINSON FIELD  CLEAR     56  47  71 NE6       30.00S
*KELLY FIELD   CLEAR     54  46  72 NE5       29.99F
*PLEASANTON    CLEAR     49  45  85 CALM      30.01S
*KENEDY        CLEAR     52  48  86 CALM      30.02S
*LA GRANGE     CLEAR     49  49 100 CALM      30.01S
*GIDDINGS      CLEAR     55  50  83 NE3       30.02S
*GONZALES      CLEAR     55  50  83 NE7       30.01F
$$

TXZ163>164-176>182-195>201-210>213-226-227-235-270800-
SOUTHEAST TEXAS

CITY           SKY/WX    TMP DP  RH WIND       PRES   REMARKS
COLLEGE STN    CLEAR     49  46  90 N3        30.02S
*BRYAN         CLEAR     50  50 100 CALM      30.05S
*CALDWELL      CLEAR     51  50  95 N6        30.02F
*CROCKETT      NOT AVBL
*BRENHAM       CLEAR     49  47  93 CALM      30.03S
HUNTSVILLE     FOG       53  51  93 NE3       30.03S VSB 1/2
CONROE         FOG       54  53  97 NE5       30.03S VSB 1/4
HOUSTON BUSH   PTCLDY    54  51  90 NE3       30.02S
HOUSTON HOBBY  FOG       58  55  90 SE5       30.01S VSB 1/4
*HOUSTON SW AP CLOUDY    56  56 100 CALM      30.03S FOG
PEARLAND       CLOUDY    60  56  86 SE3       30.03R
HOUSTON HOOKS  FOG       49  47  93 CALM      30.02S VSB 1/4
ELLINGTON FLD  NOT AVBL
SUGAR LAND     MOCLDY    50  50 100 CALM      30.01S
*HOUSTON EXEC  FAIR      48  48 100 N5        30.03S WCI  46
*CLEVELAND MUN CLOUDY    54  54  99 NE3       30.03F FOG
*WHARTON       CLEAR     51  47  86 NE3       30.02S
*COLUMBUS      FAIR      49  44  81 CALM      30.03S
*EAGLE LAKE    CLEAR     52  50  93 NE5       30.01F
$$

TXZ214>216-236>238-270800-
THE UPPER TEXAS COAST

CITY           SKY/WX    TMP DP  RH WIND       PRES   REMARKS
*ORANGE        CLOUDY    56  54  91 N5        30.03S
PORT ARTHUR    MOCLDY    54  53  97 N6        30.01S
GALVESTON      FAIR      59  58  96 CALM      30.01S
ANGLETON       CLOUDY    58  57  97 NE3       30.01S
*BAY CITY      FOG       55  55 100 CALM      30.01S VSB 1/4
PALACIOS       FOG       57  56  96 NE3       30.00S VSB 1/4
$$

TXZ229>234-239>247-270800-
TEXAS COASTAL BEND AND RIO GRANDE PLAINS

CITY           SKY/WX    TMP DP  RH WIND       PRES   REMARKS
VICTORIA       CLEAR     54  49  83 E7        30.00F
*BEEVILLE      NOT AVBL
ROCKPORT       FOG       54  51  90 CALM      29.99S VSB 1/4
*PORT ARANSAS  CLEAR     60  59  97 S3        30.01S FOG
*PORT LAVACA   NOT AVBL
*INGLESIDE     FOG       55  54  98 S3        29.99S VSB 1/4
CORPUS CHRISTI FOG       53  53 100 SE5       29.99S VSB 1/4
CORPUS NAS     FOG       56  56 100 S5        29.98F VSB 1/4
*ROBSTOWN      FOG       54  52  94 E5        29.99S VSB 1/4
ALICE          FOG       53  51  93 SW7       29.98S VSB 1/2
KINGSVILLE NAS FOG       52  51  97 SE6       29.98F VSB 1/4
COTULLA        CLEAR     57  48  72 E8        29.98F
LAREDO         CLEAR     59  49  69 SE7       29.98F
$$

TXZ248>255-270800-
DEEP SOUTH TEXAS

CITY           SKY/WX    TMP DP  RH WIND       PRES   REMARKS
BROWNSVILLE    FAIR      61  58  90 E7        29.97F
PORT ISABEL    FAIR      60  57  89 E7        29.97F
HARLINGEN        N/A     55  55 100 SW5       29.98S FOG
*HEBBRONVILLE  CLEAR     52  50  91 SW5       30.01R
MCALLEN        CLOUDY    62  60  93 S6        30.00F
*WESLACO       CLOUDY    60  59  94 SW5       29.99S FOG
FALFURRIAS     CLOUDY    55  53  92 SW5       29.99R VSB<1/4
EDINBURG       CLOUDY    60  59  97 SW6       30.00S FOG
*ZAPATA        FAIR      56  44  64 CALM      30.00S
$$

TXZ213>215-236>238-242>244-246-247-251-254-255-270800-
CMAN STATIONS

STATION/POSITION TIME  TEMP    WIND        PRES    WAVE
                       AIR SEA DIR/SP/G            HT/PER
                 (UTC) (F)     (DEG/KT/KT) (MB)    (FT/S)
SABINE PASS      0630   56 61   20/  7/ 11 1017.8
SEA RIM ST PARK  0700   55      50/  7/  9 1016.2
NORTH JETTY/GLS  0624   60 60   90/  4/  5 1015.0
EAGLE POINT      0624   59 61   40/  5/  5 1015.6
MORGANS POINT    0630   57 60   70/  7/  8 1016.4
PORT O`CONNOR    0624   61 63  360/  4/  4 1015.5
PORT ARANSAS     0700   62 61  190/  4/  5 1015.2
MALAQUITE BEACH  0618   61 63  150/  5/  5 1015.3
BAFFIN BAY       0618   62 67  130/  5/  6 1015.8
PORT ISABEL      0618   62 66   20/  2/  3 1015.5
$$




USA.gov is the U.S. government's official web portal to all federal, state and local government web resources and services.